Regional Weather Roundup
Issued by NWS Mobile, AL

Home | Current Version | Previous Version | Text Only | Print | Product List | Glossary On
Versions: 1 2 3 4 5 6 7 8 9 10 11 12 13 14 15 16 17 18 19 20 21 22 23 24 25 26 27 28 29 30 31 32 33 34 35 36 37 38 39 40 41 42 43 44 45 46 47 48 49 50
000
ASUS44 KMOB 241013
RWRMOB
REGIONAL WEATHER ROUNDUP
NATIONAL WEATHER SERVICE MOBILE AL
500 AM CDT TUE APR 24 2018

NOTE: "FAIR" INDICATES FEW OR NO CLOUDS BELOW 12,000 FEET WITH NO
      SIGNIFICANT WEATHER AND/OR OBSTRUCTIONS TO VISIBILITY.

  * THESE STATIONS ARE PART OF THE UNIVERSITY OF SOUTH ALABAMA
    MESONET AND ARE NOT UNDER NWS OR FAA QUALITY CONTROL.

ALZ061>064-241100-
COASTAL ALABAMA

CITY           SKY/WX    TMP DP  RH WIND       PRES   REMARKS
MOBILE REG APT FAIR      54  51  90 CALM      29.98R
BROOKLEY FIELD FAIR      57  54  89 W5        29.98S
USA CAMPUS*    NOT AVBL
DOG RIVER*     NOT AVBL


CITY           SKY/WX    TMP DP  RH WIND       PRES   REMARKS
GULF SHORES      N/A     50  50 100 E5        29.97S FOG

$$

ALZ051>060-241100-
INTERIOR SOUTHWEST AND SOUTH CENTRAL ALABAMA

CITY           SKY/WX    TMP DP  RH WIND       PRES   REMARKS
GREENVILLE     FAIR      53  49  86 W3        29.92S
EVERGREEN      FAIR      51  48  89 CALM      29.95S
ATMORE*          N/A    N/A N/A N/A SW3       30.66R
ANDALUSIA/OPP  FAIR      55  51  86 CALM      29.94S
ANDALUSIA*       N/A     52  52 100 W3        29.94S
FLORALA APT    FAIR      52  49  89 CALM      29.97R
FLORALA*       NOT AVBL

$$

FLZ001>006-241100-
WESTERN FLORIDA PANHANDLE

CITY           SKY/WX    TMP DP  RH WIND       PRES   REMARKS
PENSACOLA      FAIR      57  51  80 W7        29.96S
NAS PENSACOLA  FAIR      51  49  92 CALM      29.96S
MILTON         FAIR      50  50 100 CALM      29.96S
WHTNG S FIELD  FAIR      50  50 100 CALM      29.96S


CITY           SKY/WX    TMP DP  RH WIND       PRES   REMARKS
JAY*           NOT AVBL
DUKE FIELD     FAIR      53  50  89 W5        29.95S
CRESTVIEW      FAIR      51  49  92 CALM      29.96S
VALPARAISO     CLEAR     53  50  90 NW3       29.94S
DESTIN         FAIR      61  51  70 NW5       29.96R

$$

MSZ076-079-241100-
INTERIOR SOUTHEAST MISSISSIPPI

CITY           SKY/WX    TMP DP  RH WIND       PRES   REMARKS
LEAKESVILLE*   NOT AVBL
AGRICOLA*        N/A     52  52 100 CALM      29.96

$$

MARINE OBSERVATIONS

STATION/POSITION TIME  TEMP    WIND        PRES    WAVE
                       AIR SEA DIR/SP/G            HT/PER
                 (UTC) (F)     (DEG/KT/KT) (MB)    (FT/S)
PETIT BOIS ISLND 0948   63     280/  9/ 11 1015.7S
GRAND BAY        0830   57     290/  4     1016.0R
KATRINA CUT      0930   65     310/ 13     1015.2S
CEDAR POINT      0930   60     340/  8       N/A
E DAUPHIN ISLAND 1000   62     300/  5/  6 1014.8R
MIDDLE BAY LIGHT 0930   60     300/ 10     1015.2R
USCG MOBILE BAY  0948   56 69  260/  3/  3 1014.8R
STATE DOCKS      0936   57 65              1014.7R
MEAHER PARK      0930   58        CALM     1014.6F
WEEKS BAY        0845   55                 1014.0S
FORT MORGAN      0948   63     320/ 11/ 13   N/A
12 S ORANGE BCH  0950   64     310/ 12/ 14 1014.5F   3/ 6
PENSACOLA BAY    0936   58 71  300/  2/  4 1014.7F
64 S DAUPHIN ISL 0950      72  310/ 10/ 14 1015.5F   3/ 5
67 S FORT MORGAN 0930   66                 1015.2R

$$

SELECTED LOCATIONS ACROSS THE REGION

CITY           SKY/WX    TMP DP  RH WIND       PRES   REMARKS
NEW ORLEANS    FAIR      60  58  92 W5        29.98S
GULFPORT       FAIR      55  52  89 W3        29.97S
PASCAGOULA AP  FAIR      51  49  92 CALM      29.97S
PASCAGOULA*    NOT AVBL
HATTIESBURG    FAIR      53  52  96 CALM      29.96S
LAUREL         FAIR      51  51 100 CALM      29.96S
MERIDIAN       CLOUDY    58  54  86 S3        29.93S
JACKSON        CLOUDY    60  55  83 W7        29.92S
MONTGOMERY     FAIR      53  52  96 SW5       29.92S
TROY           FAIR      51  50  96 CALM      29.93R
ASHFORD*         N/A     52  52 100 W3        29.94S
DOTHAN         FAIR      56  51  84 W7        29.95S
PANAMA CITY    FAIR      56  53  90 SW3       29.94S

$$




USA.gov is the U.S. government's official web portal to all federal, state and local government web resources and services.